Flag for Canada Weather past 2 weeks in Drummondville, Quebec, Canada

Now
72 °F

Mild.


Feels Like: 72 °F
Forecast: 65 / 83 °F
Wind: 3 mph from East

Location: Nicolet

Current Time: Jul 7, 2015 at 10:12:14 AM

Latest Report: Jul 7, 2015 at 9:00 AM


Visibility: N/A

Pressure: 29.93 "Hg

Humidity: 81%

Dew point: 66 °F

Location of DrummondvilleLocation

Historic Weather in Drummondville — Graph

°F

Drummondville temperature yesterday

Maximum temperature yesterday: 81 °F (at 4:00 PM)
Minimum temperature yesterday: 58 °F (at 5:00 AM)
Average temperature yesterday: 70 °F

Past Weeks' High & Low Weather Summary

 TemperatureHumidityPressure
High81 °F (Jul 6, 4:00 PM)99% (Jul 6, 6:00 AM)30.18 "Hg (Jul 6, 6:00 AM)
Low49 °F (Jun 26, 5:00 AM)38% (Jun 25, 4:00 PM)29.49 "Hg (Jun 23, 5:00 PM)
Average65 °F76%29.90 "Hg
* Reported Jun 22 9:00 AM — Jul 7 9:00 AM, Drummondville, Weather by CustomWeather, © 2015

Note: Actual official high and low records may vary slightly from our data, if they occured in-between our weather recording intervals... More about our weather records

Advertising

Drummondville weather history for previous 24 hours

 ConditionsComfort  
Time TempWeatherWind HumidityBarometerVisibility
9:00 AM
Tue, Jul 7
72 °FMild.3 mph81%29.93 "HgN/A
8:00 AM69 °FMild.3 mph84%29.95 "HgN/A
7:00 AM67 °FMild.1 mph90%29.97 "HgN/A
6:00 AM64 °FMild.1 mph90%29.96 "HgN/A
5:00 AM65 °FMild.3 mph85%29.95 "HgN/A
4:00 AM62 °FCool.3 mph92%29.96 "HgN/A
3:00 AM61 °FCool.2 mph93%29.97 "HgN/A
2:00 AM61 °FCool.3 mph91%29.98 "HgN/A
1:00 AM64 °FMild.2 mph83%29.98 "HgN/A
12:00 AM67 °FMild.2 mph75%29.98 "HgN/A
11:00 PM
Mon, Jul 6
68 °FMild.3 mph74%30.00 "HgN/A
10:00 PM69 °FMild.2 mph69%30.01 "HgN/A
9:00 PM72 °FMild.3 mph65%30.01 "HgN/A
8:00 PM75 °FMild.2 mph67%30.02 "HgN/A
7:00 PM77 °FWarm.5 mph63%30.01 "HgN/A
6:00 PM79 °FWarm.8 mph58%30.02 "HgN/A
5:00 PM80 °FWarm.8 mph56%30.03 "HgN/A
4:00 PM81 °FWarm.8 mph55%30.04 "HgN/A
3:00 PM80 °FWarm.7 mph61%30.06 "HgN/A
2:00 PM78 °FWarm.5 mph71%30.09 "HgN/A
1:00 PM77 °FMild.3 mph76%30.09 "HgN/A
12:00 PM75 °FMild.3 mph76%30.11 "HgN/A
11:00 AM75 °FMild.3 mph76%30.12 "HgN/A
10:00 AM71 °FMild.2 mph78%30.14 "HgN/A
Weather by CustomWeather, © 2015

See weather overviewHow to use our weather pages